Startseite
Über Mich
AHP4
Galerie
Sehschlangen
Tourenbuch
Bookmarks
Elektronik
Bewertung
Geschichten
[Tagesmessung] [Jahreswerte] [Information]

Messwerte vom 25.02.2022

Die letzten Messwerte von 23:58:47 Uhr:
KategorieMesswert
Temperatur [°C]3
Luftdruck [mBar]1009
Sonneneinstrahlung0
Wind [km/h]0 aus Südwest
Niederschlag [l/m²]0.2575
rel.Luftfeucht.96.6%
CO2 [ppm]415

Diagramme
Messwerte vom 25.02.2022
Tagesaggregation
KategorieMinimumMaximumSchnittSumme
Temperatur [°C]293.2542
Luftdruck [mBar]99510101001.0000
Sonneneinstrahlung24586.0188
Wind [km/h]0
rF [%]6696.687.86
Niederschlag [l/m²]0.515
CO2 [ppm]358448420.8
Einordnung alsKalter Tag

Messungen an benachbarten Tagen: Zur Jahresaggregation 2022
Tabelle aller Messwerte
UhrzeitTemperatur [°C]Luftdruck [mBar]SonneWind [km/h]RichtungRegen [l/m²]rF [%]CO2 [ppm]
00:01:49 3 995 0 0 SW 0 90 418
00:04:47 3 995 0 0 SW 0 89.9 424
00:07:49 3 995 0 0 SW 0 89.4 430
00:10:47 3 995 0 0 SW 0 89.4 430
00:13:46 3 995 0 0 W 0 89.8 427
00:16:46 3 995 0 0 SW 0 90.2 421
00:19:45 3 995 0 0 SO 0 90.8 419
00:22:47 3 995 0 0 SW 0 91 424
00:25:45 3 995 0 0 W 0 91 427
00:28:45 3 995 0 0 SW 0 91 427
00:31:49 2 995 0 0 SO 0 91.6 427
00:34:48 2 995 0 0 NW 0 91.7 427
00:37:45 2 995 0 0 W 0 91.6 421
00:40:44 2 995 0 0 N 0 91.5 427
00:43:44 2 995 0 0 S 0 91.4 421
00:46:45 2 995 0 0 O 0 91.5 418
00:49:48 2 995 0 0 SW 0 91.5 418
00:52:47 2 995 0 0 SO 0 91.6 421
00:55:46 2 995 0 0 NW 0 91.6 427
00:58:48 2 995 0 0 SO 0 91.6 433
01:01:45 2 995 0 0 S 0 91.8 430
01:04:46 2 995 0 0 SW 0 92.1 418
01:07:47 2 996 0 0 W 0 92.4 416
01:10:47 2 996 0 0 N 0 92.3 418
01:13:48 2 996 0 0 SO 0 92.3 422
01:16:45 2 996 0 0 O 0 92.3 415
01:19:47 2 996 0 0 SO 0 92.4 413
01:22:46 2 995 0 0 O 0 92.3 415
01:25:46 2 996 0 0 NO 0 92.2 421
01:28:46 2 996 0 0 SW 0 91.7 419
01:31:47 3 996 0 0 SW 0 91.2 427
01:34:46 3 996 0 0 SO 0 90.9 427
01:37:48 3 997 0 0 SO 0 90.7 427
01:40:47 3 996 0 0 NW 0 90.5 424
01:43:45 3 996 0 0 NO 0 90.5 421
01:46:45 2 996 0 0 SW 0 90.4 415
01:49:45 2 997 0 0 S 0 90.4 419
01:52:44 2 997 0 0 N 0 90.4 418
01:55:47 2 996 0 0 S 0 90.5 422
01:58:48 2 996 0 0 W 0 90.9 425
02:01:45 2 997 0 0 W 0 91.2 425
02:04:45 2 997 0 0 SW 0 91.5 421
02:07:48 2 996 0 0 SW 0 91.9 418
02:10:45 2 997 0 0 O 0 91.8 416
02:13:47 2 996 0 0 SO 0 91.5 424
02:16:45 2 997 0 0 S 0 91.3 431
02:19:45 2 997 0 0 S 0 91.3 434
02:22:45 2 997 0 0 SW 0 91.5 422
02:25:47 2 997 0 0 S 0 91.8 416
02:28:48 2 996 0 0 W 0 91.9 410
02:31:45 2 996 0 0 S 0 92.1 416
02:34:47 2 996 0 0 W 0 92.1 421
02:37:48 2 997 0 0 S 0 92.1 425
02:40:48 2 998 0 0 SO 0 91.9 428
02:43:47 2 998 0 0 NW 0 91.8 425
02:46:46 2 997 0 0 O 0 91.7 425
02:49:45 2 997 0 0 S 0 91.6 427
02:52:46 2 998 0 0 S 0 91.5 418
02:55:48 2 997 0 0 SW 0 91.3 419
02:58:46 2 997 0 0 SW 0 91.3 416
03:01:45 2 998 0 0 SW 0 91.2 413
03:04:47 2 997 0 0 W 0 91 416
03:07:46 2 997 0 0 S 0 90.9 416
03:10:48 2 997 0 0 NO 0 90.9 413
03:13:46 2 997 0 0 W 0 91 413
03:16:47 2 998 0 0 SW 0 90.9 410
03:19:46 2 997 0 0 W 0 90.8 413
03:22:45 2 998 0 0 S 0 90.6 415
03:25:47 2 998 0 0 SW 0 90.6 415
03:28:47 2 998 0 0 W 0 90.2 415
03:31:46 2 998 0 0 W 0 90 427
03:34:46 2 998 0 0 O 0 89.9 419
03:37:50 2 998 0 0 NW 0 89.8 422
03:40:46 2 997 0 0 O 0 89.7 419
03:43:47 3 998 0 0 SO 0 89.4 418
03:46:47 2 998 0 0 S 0 89 421
03:49:45 2 998 0 0 W 0 88.9 430
03:52:49 2 998 0 0 SW 0 89 424
03:55:45 2 998 0 0 W 0 89.2 424
03:58:46 2 998 0 0 W 0 89 424
04:01:47 2 998 0 0 S 0 89 421
04:04:49 2 998 0 0 SO 0 89.1 419
04:07:48 2 998 0 0 SW 0 89.2 416
04:10:47 2 998 0 0 SO 0 89.2 422
04:13:47 2 998 0 0 O 0 89.3 422
04:16:47 2 998 0 0 SW 0 89.4 422
04:19:45 2 998 0 0 SW 0 89.4 427
04:22:45 2 997 0 0 W 0 89.3 427
04:25:46 2 998 0 0 SO 0 89.1 428
04:28:46 2 998 0 0 S 0 89 430
04:31:49 2 998 0 0 SW 0 89.1 422
04:34:46 2 998 0 0 SW 0 89.1 422
04:37:48 2 998 0 0 SW 0 88.9 428
04:40:48 2 998 0 0 SW 0 88.8 421
04:43:47 2 998 0 0 W 0 88.4 424
04:46:46 2 998 0 0 W 0 88.3 422
04:49:44 2 998 0 0 S 0 88.4 423
04:52:45 2 998 0 0 S 0 88.6 419
04:55:46 2 998 0 0 S 0 88.7 418
04:58:48 2 998 0 0 NW 0 89.2 427
05:01:46 2 998 0 0 SW 0 89.4 433
05:04:45 2 998 0 0 S 0 89.3 427
05:07:46 2 998 0 0 SW 0 89.1 424
05:10:44 2 998 0 0 W 0 89.1 421
05:13:45 2 998 0 0 W 0 89.1 427
05:16:46 2 998 0 0 SO 0 89.2 421
05:19:47 2 998 0 0 SO 0 89.4 421
05:22:48 2 998 0 0 SO 0 89.5 419
05:25:45 2 998 0 0 S 0 89.5 421
05:28:47 2 998 0 0 NW 0 89.4 424
05:31:46 2 998 0 0 W 0 89.2 427
05:34:46 2 998 0 0 SW 0 89.1 433
05:37:45 2 998 0 0 N 0 89 430
05:40:47 2 998 0 0 S 0 88.8 431
05:43:46 2 998 0 0 O 0 88.5 428
05:46:47 2 998 0 0 SO 0 88 430
05:49:46 2 998 0 0 S 0 87.9 431
05:52:48 2 998 0 0 SO 0 87.5 430
05:55:46 2 998 0 0 SW 0 87.3 435
05:58:46 2 998 0 0 O 0 87.3 430
06:01:46 2 998 0 0 SW 0 87.1 433
06:04:46 2 998 0 0 O 0 86.9 433
06:07:47 2 998 0 0 O 0 86.8 434
06:10:48 2 998 0 0 NO 0 86.5 439
06:13:49 2 998 0 0 O 0 86.1 440
06:16:47 2 998 0 0 W 0 85.7 433
06:19:46 2 998 0 0 S 0 85.5 433
06:22:45 2 998 0 0 S 0 85.5 433
06:25:46 2 998 0 0 SW 0 85.4 433
06:28:46 2 998 0 0 SW 0 85.2 431
06:31:48 2 998 0 0 SW 0 84.6 427
06:34:46 3 998 0 0 N 0 84.5 433
06:37:46 3 998 0 0 SW 0 84.1 431
06:40:49 3 998 0 0 NW 0 83.3 437
06:43:44 3 998 0 0 W 0 83.2 442
06:46:48 3 998 0 0 SW 0 83.5 448
06:49:47 3 998 5 0 SO 0 83.5 437
06:52:46 2 998 8 0 S 0 83.6 433
06:55:46 2 998 13 0 W 0 83.6 433
06:58:47 2 998 20 0 W 0 83.9 433
07:01:49 2 998 29 0 SO 0 84.4 434
07:04:47 2 999 39 0 NW 0 84.5 433
07:07:48 2 998 51 0 S 0 84.7 442
07:10:47 2 998 63 0 W 0 85 445
07:13:47 2 998 77 0 SW 0 85.1 439
07:16:49 2 998 88 0 SO 0 85.2 439
07:19:46 2 998 99 0 SW 0 85 442
07:22:48 2 998 109 0 SO 0 84.9 439
07:25:50 2 998 119 0 SO 0 84.8 436
07:28:49 2 998 127 0 SW 0 84.9 436
07:31:49 2 999 134 0 SO 0 84.9 431
07:34:48 2 999 141 0 S 0 85 439
07:37:49 2 998 146 0 SO 0 85.1 439
07:40:46 2 998 151 0 N 0 85 442
07:43:49 2 998 155 0 S 0 85 439
07:46:46 2 998 158 0 SW 0 85.1 442
07:49:48 2 999 161 0 W 0 85.1 445
07:52:48 2 999 164 0 S 0 85.1 443
07:55:46 2 998 166 0 S 0 85.2 436
07:58:48 2 998 169 0 O 0 85.3 436
08:01:49 2 999 170 0 SW 0 85.3 439
08:04:51 2 999 172 0 SO 0 85.4 439
08:07:49 2 998 174 0 SO 0 85.4 441
08:10:48 2 999 175 0 S 0 85.4 430
08:13:48 2 999 176 0 S 0 85.3 430
08:16:48 2 999 177 0 SW 0 85.4 430
08:19:47 2 999 178 0 W 0 85.1 437
08:22:47 2 998 179 0 S 0 85 430
08:25:48 3 998 180 0 SW 0 84.9 427
08:28:48 3 998 180 0 S 0 84.7 425
08:31:49 3 999 181 0 S 0 84.4 430
08:34:49 3 999 182 0 SO 0 84.2 436
08:37:51 3 998 182 0 NW 0 84.2 436
08:40:46 3 998 183 0 O 0 84.3 435
08:43:49 3 999 184 0 SO 0 84.3 431
08:46:47 3 999 184 0 W 0 84.2 427
08:49:48 3 999 185 0 S 0 83.6 433
08:52:46 3 999 185 0 S 0 83.1 442
08:55:48 3 999 186 0 NO 0 83 436
08:58:50 3 999 186 0 S 0 82.9 428
09:01:49 3 999 186 0 S 0 82.7 427
09:04:47 3 998 187 0 W 0 82.2 430
09:07:48 3 999 187 0 W 0 82.1 442
09:10:48 3 999 188 0 S 0 81.5 442
09:13:48 4 999 189 0 NO 0 81.3 436
09:16:48 4 999 190 0 SW 0 81 437
09:19:50 4 998 192 0 SW 0 81.2 439
09:22:47 4 999 194 0 SW 0 80.8 444
09:25:46 4 999 198 0 W 0 80.7 436
09:28:49 4 999 201 0 S 0 80.6 431
09:31:48 4 999 198 0 N 0 79.7 424
09:34:47 4 999 195 0 O 0 79.4 430
09:37:47 4 999 192 0 S 0 78.9 436
09:40:47 4 999 193 0 SO 0 78.8 445
09:43:49 4 998 195 0 SW 0 78.1 444
09:46:47 4 999 199 0 SO 0 78 437
09:49:47 4 999 201 0 W 0 77 433
09:52:45 4 999 204 0 S 0 77.1 440
09:55:49 4 999 202 0 SW 0 76.6 439
09:58:46 4 999 200 0 SW 0 76.3 437
10:01:48 4 1000 200 0 SO 0 76 433
10:04:48 5 999 213 0 S 0 75.7 424
10:07:49 5 999 209 0 SW 0 75.5 428
10:10:49 5 1000 212 0 SW 0 76 428
10:13:47 5 999 203 0 SO 0 75.6 430
10:16:45 5 999 207 0 W 0 74.4 427
10:19:48 5 999 208 0 S 0 73.3 437
10:22:46 5 999 213 0 W 0 74 436
10:25:49 5 999 218 0 SO 0 73.9 434
10:28:48 5 999 217 0 SW 0 73.6 436
10:31:46 5 999 213 0 S 0 74.1 433
10:34:48 5 1000 215 0 SW 0 73.8 436
10:37:48 5 1000 212 0 NW 0 72.4 424
10:40:46 6 1000 215 0 W 0 71.7 431
10:43:46 6 999 215 0 W 0 72 436
10:46:48 6 1000 202 0 S 0 71.4 436
10:49:45 6 999 205 0 W 0 71.8 430
10:52:48 5 999 205 0 SW 0 71.9 436
10:55:47 5 999 213 0 SO 0 72.7 427
10:58:46 5 999 213 0 SW 0 73.3 430
11:01:48 5 999 216 0 SO 0 72 428
11:04:46 6 999 211 0 S 0 72 424
11:07:46 6 999 209 0 O 0 71.7 424
11:10:47 6 1000 213 0 SW 0 71.1 418
11:13:46 6 999 223 0 W 0 71.4 418
11:16:46 6 999 220 0 SW 0 71.1 416
11:19:49 6 1000 217 0 SW 0 68.4 418
11:22:48 6 999 212 0 S 0 68.6 414
11:25:47 6 999 212 0 S 0 69.2 414
11:28:50 6 999 219 0 NW 0 70.5 419
11:31:47 6 999 207 0 S 0 70.9 430
11:34:46 6 1000 202 0 O 0 70.7 430
11:37:49 6 999 187 0 S 0 70.8 430
11:40:46 6 999 206 0 W 0 71.3 430
11:43:48 6 1000 209 0 S 0 71.8 431
11:46:46 6 1000 212 0 S 0 71.1 433
11:49:48 6 1000 208 0 O 0 72.1 430
11:52:47 5 1000 197 0 W 0 72 430
11:55:45 5 1000 203 0 S 0 73.4 430
11:58:47 5 1000 209 0 S 0 73.8 427
12:01:46 5 1000 212 0 S 0 75.2 427
12:04:47 5 1000 209 0 SW 0 77.1 424
12:07:47 5 1000 196 0 SW 0 78.2 422
12:10:48 5 1001 191 0 SO 0 78.3 421
12:13:48 5 1000 185 0 SW 0 79.6 418
12:16:47 5 1000 191 0 W 0 81.3 418
12:19:46 4 1001 193 0 S 0 82 418
12:22:47 4 1000 188 0 W 0 82.1 418
12:25:50 4 1000 190 0 SO 0 82.5 418
12:28:47 4 1001 188 0 SO 0 82.6 415
12:31:47 4 1001 192 0 W 0 82.4 421
12:34:47 4 1000 187 0 S 0 82.7 421
12:37:49 4 1001 183 0 SW 0 82.8 422
12:40:46 4 1001 188 0 W 0 82.8 415
12:43:49 4 1000 195 0 NW 0 83.1 418
12:46:48 4 1000 203 0 SW 0 83.4 413
12:49:46 5 1001 209 0 S 0 83.2 412
12:52:47 5 1001 213 0 O 0 83.2 410
12:55:47 5 1001 209 0 NW 0 83.4 413
12:58:47 5 1001 206 0 S 0 82.7 413
13:01:47 5 1001 211 0 N 0 82.7 413
13:04:48 5 1001 214 0 SO 0 82.6 418
13:07:47 5 1001 186 0 S 0 82.6 418
13:10:52 5 1001 203 0 SO 0 82.3 413
13:13:48 5 1001 188 0 S 0 82.5 412
13:16:47 5 1001 201 0 S 0 82.9 412
13:19:46 5 1000 195 0 N 0 82.8 418
13:22:46 5 1001 196 0 S 0 82.3 421
13:25:47 5 1001 199 0 SW 0 82.4 419
13:28:47 5 1001 232 0 SO 0 81.8 418
13:31:47 6 1000 234 0 SO 0 81.2 407
13:34:46 7 1001 233 0 O 0 77.8 410
13:37:47 7 1000 221 0 SW 0 75.6 412
13:40:47 7 1001 224 0 SW 0 74.1 416
13:43:48 7 1000 224 0 S 0 73.1 419
13:46:47 6 1001 213 0 SO 0 74.3 421
13:49:50 6 1001 232 0 SW 0 74.6 418
13:52:47 6 1001 235 0 W 0 74.6 418
13:55:50 7 1002 234 0 NO 0 74.8 424
13:58:49 7 1002 232 0 W 0 72 421
14:01:46 7 1001 226 0 W 0 71.2 422
14:04:46 7 1000 236 0 S 0 71.1 416
14:07:47 7 1001 233 0 W 0 72.1 418
14:10:51 7 1001 242 0 SW 0 72.2 415
14:13:48 8 1001 242 0 NO 0 70.9 419
14:16:46 8 1001 243 0 W 0 69.8 422
14:19:48 8 1001 242 0 SW 0 69.3 419
14:22:46 8 1001 240 0 W 0 69.5 418
14:25:46 9 1001 237 0 W 0 68.1 415
14:28:48 8 1001 245 0 W 0 68.3 418
14:31:49 8 1001 226 0 SW 0 66 415
14:34:47 8 1001 226 0 S 0 66 413
14:37:49 7 1001 216 0 S 0 68.2 416
14:40:48 7 1001 211 0 SW 0 70.6 418
14:43:49 7 1001 209 0 SW 0 70.8 422
14:46:48 7 1001 194 0 O 0 73 418
14:49:47 6 1000 196 0 W 0 73.3 418
14:52:49 6 1001 204 0 SO 0 74.9 418
14:55:47 6 1002 214 0 SW 0 76.4 418
14:58:45 6 1001 217 0 S 0 77.3 413
15:01:47 6 1001 203 0 S 0 77.5 413
15:04:46 6 1001 197 0 W 0 77.5 409
15:07:48 6 1001 204 0 W 0 78.2 409
15:10:47 6 1001 193 0 SW 0 78.7 409
15:13:44 6 1002 152 0 S 0 79.1 415
15:16:47 5 1002 112 0 SW 0 80.9 416
15:19:31 5 1002 116 0 SW 0 70.5 415
15:22:48 5 1002 116 0 SW 0 86.9 413
15:25:47 5 1002 112 0 W 0 87.4 416
15:28:48 4 1002 122 0 W 0.2575 90.8 416
15:31:47 4 1002 146 0 SW 0 91.7 424
15:34:46 4 1002 182 0 W 0 92.5 419
15:37:49 4 1002 201 0 SW 0 92.9 416
15:40:49 4 1002 211 0 SW 0 94.1 418
15:43:45 4 1002 217 0 S 0 94.5 418
15:46:47 4 1002 219 0 W 0 94.8 415
15:49:50 4 1002 219 0 NW 0 94.5 409
15:52:48 4 1002 219 0 SW 0 93.9 409
15:55:50 4 1002 217 0 SW 0 93.8 413
15:58:49 4 1002 215 0 NW 0 94.2 406
16:01:49 4 1002 214 0 S 0 94.5 409
16:04:49 4 1002 215 0 SW 0 94.9 413
16:07:48 4 1002 211 0 SW 0 94.9 412
16:10:49 4 1002 211 0 S 0 94.9 418
16:13:46 4 1002 211 0 SO 0 95 413
16:16:48 4 1002 210 0 W 0 95.1 409
16:19:47 3 1002 213 0 S 0 95.1 413
16:22:48 3 1002 214 0 N 0 95 413
16:25:47 3 1002 209 0 SW 0 94.8 418
16:28:48 3 1002 210 0 NO 0 94.6 418
16:31:48 3 1002 215 0 SO 0 94.5 424
16:34:47 3 1002 218 0 S 0 94.7 421
16:37:47 3 1002 224 0 SO 0 94.7 413
16:40:47 3 1002 214 0 NW 0 94.8 419
16:43:47 3 1002 224 0 SW 0 94.9 424
16:46:50 3 1002 215 0 S 0 95.5 422
16:49:47 3 1002 218 0 SO 0 95.7 416
16:52:46 3 1002 219 0 W 0 95.7 413
16:55:48 3 1002 206 0 S 0 95.7 407
16:58:46 3 1002 214 0 W 0 95.5 415
17:01:46 4 1002 204 0 SW 0 95.4 416
17:04:50 4 1002 185 0 SO 0 95.3 421
17:07:47 4 1002 196 0 S 0 95.2 418
17:10:48 4 1002 151 0 SW 0 95.1 418
17:13:47 4 1002 165 0 NO 0 94.7 419
17:16:48 4 1002 168 0 SO 0 94.5 421
17:19:48 4 1002 172 0 SW 0 94.3 418
17:22:45 4 1002 174 0 S 0 94.2 413
17:25:47 3 1002 165 0 S 0 94.2 417
17:28:48 3 1002 153 0 NW 0 94.1 416
17:31:48 3 1002 116 0 SW 0 94.2 421
17:34:47 3 1002 108 0 SO 0 94.7 421
17:37:48 3 1002 112 0 SO 0 94.8 418
17:40:48 3 1002 90 0 SO 0 94.6 415
17:43:48 3 1002 51 0 SW 0 94.5 406
17:46:47 3 1002 53 0 N 0 94.5 409
17:49:45 3 1002 41 0 O 0 94.5 419
17:52:46 3 1003 47 0 SW 0 94.8 419
17:55:45 3 1002 31 0 S 0 95.2 415
17:58:46 3 1002 13 0 W 0 95.6 401
18:01:45 3 1003 9 0 SW 0 96.1 406
18:04:48 3 1003 7 0 SO 0 96.6 408
18:07:45 3 1003 4 0 S 0 96.6 407
18:10:46 3 1003 0 0 SW 0 96.6 404
18:13:47 3 1003 0 0 SW 0 96.6 407
18:16:45 3 1003 0 0 S 0 96.6 407
18:19:46 3 1003 0 0 SW 0 96.6 409
18:22:46 3 1004 0 0 W 0 96.6 415
18:25:47 3 1003 0 0 SW 0 96.6 417
18:28:48 3 1003 0 0 NW 0 96.6 415
18:31:47 3 1004 0 0 W 0 96.6 412
18:34:44 3 1003 0 0 N 0 96.6 413
18:37:46 3 1004 0 0 W 0 96.6 415
18:40:46 3 1004 0 0 SW 0 96.6 419
18:43:46 3 1004 0 0 S 0 96.6 425
18:46:44 3 1003 0 0 W 0 96.6 413
18:49:45 3 1005 0 0 O 0 96.6 416
18:52:47 3 1005 0 0 W 0 96.6 415
18:55:47 3 1005 0 0 SW 0 96.6 413
18:58:46 3 1005 0 0 W 0 96.6 403
19:01:46 3 1005 0 0 S 0 96.6 407
19:04:45 3 1004 0 0 W 0 96.6 413
19:07:48 3 1005 0 0 W 0 96.6 421
19:10:46 3 1005 0 0 W 0 96.6 416
19:13:47 3 1005 0 0 W 0 96.6 410
19:16:46 3 1005 0 0 SW 0 96.6 406
19:19:47 3 1005 0 0 SO 0 96.6 413
19:22:47 3 1006 0 0 SW 0 96.6 358
19:25:47 3 1006 0 0 NW 0 96.6 412
19:28:47 2 1005 0 0 NW 0 96.6 413
19:31:45 2 1006 0 0 SW 0 96.6 415
19:34:46 2 1005 0 0 SW 0 96.6 410
19:37:46 3 1006 0 0 SW 0 96.6 407
19:40:47 3 1006 0 0 W 0 96.6 407
19:43:48 3 1006 0 0 SW 0 96.6 407
19:46:48 3 1006 0 0 W 0 96.6 412
19:49:48 3 1005 0 0 NW 0 96.6 413
19:52:47 3 1006 0 0 SW 0 96.6 410
19:55:45 3 1006 0 0 SW 0 96.6 414
19:58:47 3 1006 0 0 NW 0 96.6 407
20:01:47 3 1006 0 0 W 0 96.6 408
20:04:47 3 1006 0 0 SW 0 96.6 408
20:07:49 3 1006 0 0 SW 0 96.6 407
20:10:47 3 1006 0 0 W 0 96.6 408
20:13:46 3 1006 0 0 NO 0 96.6 409
20:16:46 3 1006 0 0 S 0 96.6 409
20:19:47 3 1006 0 0 SW 0 96.6 410
20:22:48 2 1006 0 0 NW 0 96.6 413
20:25:46 2 1006 0 0 NO 0 96.6 415
20:28:50 2 1006 0 0 NW 0 96.6 418
20:31:47 2 1006 0 0 SW 0 96.6 412
20:34:49 2 1006 0 0 NO 0 96.6 407
20:37:48 2 1006 0 0 W 0 96.6 407
20:40:48 2 1006 0 0 SW 0 96.6 410
20:43:48 2 1006 0 0 O 0 96.6 409
20:46:49 2 1006 0 0 NW 0 96.6 407
20:49:48 2 1006 0 0 W 0 96.6 413
20:52:48 2 1007 0 0 SW 0 96.6 410
20:55:47 2 1006 0 0 W 0 96.6 413
20:58:47 2 1006 0 0 SW 0 96.6 412
21:01:48 2 1006 0 0 SW 0 96.6 410
21:04:47 2 1007 0 0 S 0 96.6 410
21:07:46 2 1006 0 0 W 0 96.6 407
21:10:46 2 1006 0 0 SW 0 96.6 410
21:13:47 2 1008 0 0 N 0 96.6 409
21:16:48 2 1007 0 0 SW 0 96.6 412
21:19:49 2 1007 0 0 SW 0 96.6 425
21:22:45 2 1008 0 0 SW 0 96.6 427
21:25:49 2 1008 0 0 W 0 96.6 424
21:28:47 2 1007 0 0 SW 0 96.6 418
21:31:47 3 1008 0 0 NW 0 96.6 424
21:34:49 3 1009 0 0 SW 0 96.6 418
21:37:46 3 1008 0 0 W 0 96.6 418
21:40:48 3 1008 0 0 SO 0 96.6 416
21:43:46 3 1008 0 0 SW 0 96.6 412
21:46:47 3 1008 0 0 SW 0 96.6 410
21:49:47 3 1008 0 0 O 0 96.6 407
21:52:47 3 1008 0 0 O 0 96.6 404
21:55:46 3 1009 0 0 S 0 96.6 415
21:58:47 2 1009 0 0 W 0 96.6 419
22:01:48 2 1008 0 0 SW 0 96.6 418
22:04:48 2 1009 0 0 SW 0 96.6 415
22:07:47 2 1008 0 0 SW 0 96.6 404
22:10:50 2 1009 0 0 S 0 96.6 406
22:13:46 2 1009 0 0 W 0 96.6 407
22:16:48 2 1009 0 0 SW 0 96.6 413
22:19:45 2 1009 0 0 S 0 96.6 407
22:22:47 2 1009 0 0 W 0 96.6 409
22:25:47 2 1010 0 0 SO 0 96.6 410
22:28:47 2 1009 0 0 NO 0 96.6 412
22:31:48 2 1010 0 0 W 0 96.6 410
22:34:48 2 1009 0 0 SW 0 96.6 410
22:37:46 2 1009 0 0 W 0 96.6 406
22:40:47 2 1009 0 0 SW 0 96.6 404
22:43:46 2 1009 0 0 SW 0 96.6 403
22:46:48 2 1009 0 0 SW 0 96.6 407
22:49:49 2 1009 0 0 SO 0 96.6 404
22:52:47 2 1009 0 0 SW 0 96.6 406
22:55:45 2 1010 0 0 W 0 96.6 415
22:58:46 2 1010 0 0 S 0 96.6 416
23:01:47 2 1010 0 0 SW 0 96.6 416
23:04:47 2 1010 0 0 SW 0 96.6 410
23:07:46 2 1009 0 0 W 0 96.6 410
23:10:46 2 1010 0 0 W 0 96.6 409
23:13:44 2 1010 0 0 W 0 96.6 413
23:16:48 2 1010 0 0 S 0 96.6 413
23:19:46 2 1010 0 0 S 0 96.6 415
23:22:49 2 1009 0 0 SO 0 96.6 407
23:25:47 2 1010 0 0 N 0 96.6 413
23:28:46 2 1010 0 0 NW 0 96.6 415
23:31:46 2 1010 0 0 SW 0 96.6 413
23:34:45 2 1010 0 0 W 0 96.6 418
23:37:47 2 1010 0 0 W 0 96.6 413
23:40:48 2 1010 0 0 NW 0 96.6 412
23:43:47 2 1010 0 0 SW 0 96.6 412
23:46:47 2 1010 0 0 N 0 96.6 410
23:49:47 2 1010 0 0 SW 0 96.6 407
23:52:45 2 1010 0 0 W 0 96.6 407
23:55:46 2 1009 0 0 SW 0 96.6 419
23:58:47 3 1009 0 0 SW 0.2575 96.6 415

Letzte Änderung : 04-Jan-2022
Copyright Jens Köhler, Wolfsburg, Obere Dorfstraße 10d